sat.trackr.live / text

‹ back to catalog

COSMOS 2432 (719)

NORAD 32276 · 2007-052B

PAYLOAD ACTIVE UNKNOWN

§ Identity

Operator
Country
CIS
Launch date
2007-10-26
Launch site
TYMSC
Launch vehicle
Mass (kg)
RCS (m²)
3.16

Purposes: nav

External: N2YO · Heavens-Above · Gunter

§ Orbital elements

Epoch: 2026-05-20T12:51:43.132896Z

Period
675.73 min
Inclination
65.6091°
Eccentricity
0.0008143
Mean motion
2.13103103 rev/d
Perigee alt
19,109.0 km
Apogee alt
19,150.6 km
Semi-major
25,507.9 km
B*
0.0000e+0
RAAN
316.9910°
Arg perigee
336.0455°
Mean anomaly
203.0511°
Rev number
14,449

§ Raw data

COSMOS 2432 (719)1 32276U 07052B   26140.53591589 -.00000037  00000+0  00000+0 0  99912 32276  65.6091 316.9910 0008143 336.0455 203.0511  2.13103103144498

JSON: /api/v1/satellites/32276 · /tle

For live sub-satellite position, see the globe view (requires WebGL).

§ Visibility from observer

Set your observer location to see the next 7 days of passes ≥ 10°. The values pass through the URL so the page stays shareable.

No JS? Fill the form by hand. The geolocation button needs JavaScript.